"Pseudo-MPEC" for P119Vzt

Created 2020 Nov 22 15:07:33 UT using Find_Orb

Click here for an explanation of pseudo-MPECs

 
 Astrometry: 
     P119Vzt  C2020 11 20`O2qwxOuoYQQ?bA-G@='k`:kmP%7q+PW4b(e`1;/jl:c.[pUVg6GF51
     P119Vzt  C2020 11 20NQmu'r2RWbdl$l1$LMHrh2#\63JL5RW(M_`k1UW[iyo'(hInHLQ^F51
     P119Vzt  C2020 11 20:U1OahW4'1NMv+(Tf*AstrometryCed8lmZ;a)BlA6!,ebuvQVa%F51
     P119Vzt  C2020 11 20)]0f7vJZ5Mb\-$wjD26EUbmQ9$8au)M3YRmugt^#\LpD8`D1;,$lF51
     P119Vzt |C2020 11 21E\^=DYFKlZ#:UDhmGJ/HQYFi?jZPYO;dm_DmejMh^]3MP4Q:\(s]807
     P119Vzt |C2020 11 21rm'LMX+.-GrT`pH%;OHy25cIXW``*C2wJ_%\j3Dk_x,0F1KvY$bn807
     P119Vzt |C2020 11 21+%=\XWg!j%OCredacted;s0`?J^KZ_6+5clickp/wn#619niZI3y807
     P119Vzt KC2020 11 21.17352 02 03 45.81 -17 26 43.7    ~BL4q 21.7 RoNEOCP291
     P119Vzt KC2020 11 21.17801 02 03 46.76 -17 26 30.1    ~BL4q 21.1 RoNEOCP291
     P119Vzt KC2020 11 21.18249 02 03 47.65 -17 26 16.9    ~BL4q 21.3 RoNEOCP291
     P119Vzt |C2020 11 22ObvE5a+T1C%E(P=f9o^.ruseiF9OyBkOg'6L[!o;FR1PoQj5Rj0K807
     P119Vzt |C2020 11 22VThVGqUic*0ju6%P_tQ7_[a6K%LWp6]D%\kv74_ux)J4cUt],eCg807
     P119Vzt |C2020 11 22LYm,_JPa\tffc/*S,/god;,J'Ok-c^9coRJQMkImTXG0=pLBej]L807
     P119Vzt KC2020 11 22.13837 02 07 25.12 -16 36 42.4    ~BM5M 21.2 RoNEOCP691
     P119Vzt KC2020 11 22.14837 02 07 27.27 -16 36 11.1    ~BM5M 21.2 RoNEOCP691
     P119Vzt KC2020 11 22.15078102 07 27.77 -16 36 04.1    ~BM47 21.09GVNEOCPV06
     P119Vzt KC2020 11 22.15315702 07 28.25 -16 35 56.9    ~BM47 21.50GVNEOCPV06
     P119Vzt KC2020 11 22.15553302 07 28.79 -16 35 48.8    ~BM47 20.51GVNEOCPV06
     P119Vzt KC2020 11 22.15844 02 07 29.43 -16 35 39.4    ~BM5M 20.6 RoNEOCP691
     P119Vzt KC2020 11 22:!+LDeAahere5MefTV6G0HIAeI7kkW[)]OG85sWY9R@N%+nZb^[L474
     P119Vzt KC2020 11 22-*GrT9dyJy(-OPEdIVw.qjh_Hw)E*hFWB_uuct$JI.pg1dNi[rW8474
     P119Vzt KC2020 11 221Y0/U9*VJoEY@Z)CBS1forS4u[#WTZIe9Yt/5h:kexplanation8474
     P119Vzt KC2020 11 22@:8vsXVWUx0f,Dg!MA[vaNU[^D#R5pr*.o#@%ZuXEbdCX+E+MZ'4474
     P119Vzt KC2020 11 22/\IG''ypwK+tX%T827P[t[Yb``PICTJ$[It2OOqI-v#yvi7msLAU474

Station data:
(291) LPL/Spacewatch II  (N31.961669 W111.599905)  US/Arizona.  Observers J.
   V. Scotti, R. S. McMillan. 1.8-m f/2.7 reflector + CCD.
(474) Mount John Observatory, Lake Tekapo  (S43.987388 E170.464960)  New
   Zealand.  Observers A. C. Gilmore, P. M. Kilmartin. Measurer P. M.
   Kilmartin. 1.0-m f/7.7 reflector + CCD.
(691) Steward Observatory, Kitt Peak - Spacewatch  (N31.962174 W111.600327)
   US/Arizona.  Observer J. V. Scotti. 0.9-m f/3 reflector + CCD.
(807) Cerro Tololo Observatory, La Serena  (S30.169136 W70.805900)  Chile.
(F51) Pan-STARRS 1, Haleakala  (N20.707235 W156.255910)  US/Hawaii.
   Observers N. Primak, A. Schultz, S. Watters, J. Thiel, T. Goggia. Measurer
   PS1 Science Consortium. 1.8-m Ritchey-Chrétien + CCD.
(V06) Catalina Sky Survey-Kuiper  (N32.416847 W110.732550)  US/Arizona.
   Observers T. A. Pruyne, B. M. Africano, E. J. Christensen, G. A. Farneth,
   D. C. Fuls, A. R. Gibbs, A. D. Grauer, H. Gröller, J. A. Johnson, R. A.
   Kowalski, S. M. Larson, G. J. Leonard, D. Rankin, R. L. Seaman, F. C.
   Shelly. 1.55-m reflector + CCD.

Orbital elements:  P119Vzt
   Perihelion 2020 Nov 8.837287 +/- 0.134 TT = 20:05:41 (JD 2459162.337287)
Epoch 2020 Nov 22.0 TT = JDT 2459175.5   Earth MOID: 0.1825   Ju: 0.8237
M   2.59590248 +/- 0.07             Ma: 0.0246                AutoNEOCP
n   0.19721637 +/- 0.00451          Peri.  289.98679 +/- 0.29
a   2.92308023 +/- 0.0446           Node   110.53010 +/- 0.17
e   0.6096085 +/- 0.00556           Incl.    6.05161 +/- 0.040
P   5.00                   H 23.0   G  0.15   U  9.1  
q 1.14114556 +/- 0.00116    Q 4.70501489 +/- 0.0898
From 24 observations 2020 Nov. 20-22; mean residual 0".57
Residuals in arcseconds: 
201120 F51  .13-  .22-    201121 291  .07-  .44+    201122 V06  .17-  .49-    
201120 F51  .21+  .17+    201121 291  1.0-  .11-    201122 V06  .32+  .23+    
201120 F51  .08-  .16-    201122 807  .24-  .67-    201122 691  .09+  .32+    
201120 F51  .19-  .10-    201122 807  .43+  .81-    201122 474  .04-  .36-    
201121 807  .67+  .11+    201122 807  .09+  .30-    201122 474  .85-  1.2+    
201121 807  .57+  .12-    201122 691  .37-  .40-    201122 474  .59+  .56-    
201121 807  .32+  .12+    201122 691  .14-  .11-    201122 474  1.7+  .18+    
201121 291  .03+  .61+    201122 V06  .20+  .31-    201122 474  1.7-  1.4+    

Ephemerides (geocentric):
Date (UTC) HH   RA              Dec         delta   r     elong  mag " sig PA
---- -- -- --  -------------   -----------  ------ ------ -----  --- ---- ---
2020 11 22 15  02 09 13.809   -16 10 44.46  .21924 1.1542 135.5 21.5 .113 100
2020 11 22 16  02 09 23.207   -16 08 33.09  .21929 1.1543 135.5 21.5 .115 100
2020 11 22 17  02 09 32.602   -16 06 21.64  .21934 1.1544 135.5 21.5 .117  99
2020 11 22 18  02 09 41.995   -16 04 10.13  .21940 1.1544 135.6 21.5 .119  98
2020 11 22 19  02 09 51.386   -16 01 58.55  .21945 1.1545 135.6 21.5 .122  98
2020 11 22 20  02 10 00.774   -15 59 46.90  .21950 1.1546 135.6 21.5 .124  97
2020 11 22 21  02 10 10.159   -15 57 35.18  .21955 1.1547 135.6 21.5 .126  97
2020 11 22 22  02 10 19.543   -15 55 23.40  .21961 1.1547 135.6 21.5 .128  96
2020 11 22 23  02 10 28.923   -15 53 11.55  .21966 1.1548 135.7 21.5 .130  96
2020 11 23 00  02 10 38.301   -15 50 59.63  .21971 1.1549 135.7 21.5 .132  96
2020 11 23 01  02 10 47.676   -15 48 47.65  .21976 1.1550 135.7 21.5 .134  95
2020 11 23 02  02 10 57.049   -15 46 35.61  .21982 1.1551 135.7 21.5 .136  95
2020 11 23 03  02 11 06.420   -15 44 23.49  .21987 1.1552 135.7 21.5 .138  95
2020 11 23 04  02 11 15.787   -15 42 11.32  .21993 1.1552 135.8 21.5 .140  95
2020 11 23 05  02 11 25.153   -15 39 59.08  .21998 1.1553 135.8 21.5 .142  95
2020 11 23 06  02 11 34.515   -15 37 46.77  .22004 1.1554 135.8 21.5 .144  95
2020 11 23 07  02 11 43.875   -15 35 34.41  .22009 1.1555 135.8 21.5 .146  95
2020 11 23 08  02 11 53.232   -15 33 21.98  .22015 1.1556 135.8 21.5 .148  95
2020 11 23 09  02 12 02.587   -15 31 09.48  .22020 1.1556 135.9 21.5 .150  95
2020 11 23 10  02 12 11.939   -15 28 56.93  .22026 1.1557 135.9 21.5 .151  95
2020 11 23 11  02 12 21.288   -15 26 44.31  .22031 1.1558 135.9 21.5 .153  95
2020 11 23 12  02 12 30.635   -15 24 31.64  .22037 1.1559 135.9 21.5 .155  95
2020 11 23 13  02 12 39.979   -15 22 18.90  .22043 1.1560 135.9 21.5 .157  95
2020 11 23 14  02 12 49.320   -15 20 06.11  .22048 1.1561 136.0 21.5 .158  95
2020 11 23 15  02 12 58.659   -15 17 53.25  .22054 1.1561 136.0 21.5 .160  95
2020 11 23 16  02 13 07.995   -15 15 40.33  .22060 1.1562 136.0 21.5 .161  95
2020 11 23 17  02 13 17.328   -15 13 27.36  .22066 1.1563 136.0 21.5 .163  96
2020 11 23 18  02 13 26.658   -15 11 14.33  .22071 1.1564 136.0 21.5 .165  96
2020 11 23 19  02 13 35.986   -15 09 01.24  .22077 1.1565 136.1 21.5 .166  96
2020 11 23 20  02 13 45.311   -15 06 48.09  .22083 1.1566 136.1 21.5 .168  96
2020 11 23 21  02 13 54.633   -15 04 34.89  .22089 1.1566 136.1 21.5 .169  97
2020 11 23 22  02 14 03.952   -15 02 21.63  .22095 1.1567 136.1 21.5 .170  97
2020 11 23 23  02 14 13.269   -15 00 08.31  .22101 1.1568 136.1 21.5 .172  97
2020 11 24 00  02 14 22.582   -14 57 54.94  .22107 1.1569 136.2 21.5 .173  98
2020 11 24 01  02 14 31.893   -14 55 41.51  .22113 1.1570 136.2 21.5 .175  98
2020 11 24 02  02 14 41.201   -14 53 28.03  .22119 1.1571 136.2 21.5 .176  98
2020 11 24 03  02 14 50.506   -14 51 14.50  .22125 1.1572 136.2 21.5 .177  99
2020 11 24 04  02 14 59.809   -14 49 00.91  .22131 1.1572 136.2 21.5 .179  99
2020 11 24 05  02 15 09.108   -14 46 47.26  .22137 1.1573 136.3 21.5 .180 100
2020 11 24 06  02 15 18.405   -14 44 33.57  .22143 1.1574 136.3 21.5 .181 100
2020 11 24 07  02 15 27.699   -14 42 19.82  .22149 1.1575 136.3 21.5 .182 101
2020 11 24 08  02 15 36.989   -14 40 06.02  .22155 1.1576 136.3 21.5 .184 101
2020 11 24 09  02 15 46.277   -14 37 52.17  .22161 1.1577 136.3 21.5 .185 102
2020 11 24 10  02 15 55.562   -14 35 38.26  .22167 1.1578 136.4 21.5 .186 102
2020 11 24 11  02 16 04.844   -14 33 24.31  .22174 1.1579 136.4 21.5 .187 103
2020 11 24 12  02 16 14.123   -14 31 10.31  .22180 1.1579 136.4 21.5 .189 103
2020 11 24 13  02 16 23.400   -14 28 56.25  .22186 1.1580 136.4 21.5 .190 104
2020 11 24 14  02 16 32.673   -14 26 42.15  .22192 1.1581 136.4 21.5 .191 104